| time (UTC) | temp F | wind direction | speed MPH | gust MPH | rain 1hr in | rain 24hr in | rain mn in | humidity % | barometer mb |
| 20260505090010 | 36 | 103 | 0.0 | 0.0 | 0.00 | 0.00 | 0.00 | 70 | 1011.2 |
| 20260505085508 | 36 | 109 | 0.0 | 0.0 | 0.00 | 0.00 | 0.00 | 70 | 1011.3 |
| 20260505085006 | 36 | 99 | 0.0 | 0.0 | 0.00 | 0.00 | 0.00 | 71 | 1011.1 |
| 20260505084504 | 36 | 113 | 0.0 | 0.0 | 0.00 | 0.00 | 0.00 | 71 | 1011.0 |
| 20260505084001 | 37 | 112 | 0.0 | 0.0 | 0.00 | 0.00 | 0.00 | 69 | 1011.1 |
| 20260505083458 | 37 | 108 | 0.0 | 0.0 | 0.00 | 0.00 | 0.00 | 69 | 1010.9 |
| 20260505082954 | 38 | 79 | 2.0 | 2.0 | 0.00 | 0.00 | 0.00 | 67 | 1011.1 |
| 20260505082450 | 37 | 90 | 1.0 | 2.0 | 0.00 | 0.00 | 0.00 | 67 | 1010.9 |
| 20260505081947 | 37 | 110 | 0.0 | 2.0 | 0.00 | 0.00 | 0.00 | 67 | 1010.9 |
| 20260505081444 | 37 | 88 | 1.0 | 2.0 | 0.00 | 0.00 | 0.00 | 67 | 1010.7 |
| 20260505080941 | 38 | 119 | 2.0 | 3.0 | 0.00 | 0.00 | 0.00 | 66 | 1010.9 |
| 20260505080437 | 38 | 7 | 2.0 | 3.0 | 0.00 | 0.00 | 0.00 | 65 | 1010.8 |
| 20260505075932 | 39 | 96 | 1.0 | 2.0 | 0.00 | 0.00 | 0.00 | 65 | 1011.0 |
| 20260505075430 | 39 | 70 | 2.0 | 3.0 | 0.00 | 0.00 | 0.00 | 64 | 1010.9 |
| 20260505074927 | 39 | 352 | 3.0 | 3.0 | 0.00 | 0.00 | 0.00 | 63 | 1010.8 |
| 20260505074424 | 39 | 33 | 2.0 | 3.0 | 0.00 | 0.00 | 0.00 | 63 | 1010.7 |
| 20260505073921 | 39 | 331 | 3.0 | 3.0 | 0.00 | 0.00 | 0.00 | 63 | 1010.9 |
| 20260505073419 | 39 | 47 | 4.0 | 5.0 | 0.00 | 0.00 | 0.00 | 63 | 1010.9 |
| 20260505072916 | 39 | 306 | 3.0 | 5.0 | 0.00 | 0.00 | 0.00 | 62 | 1010.7 |
| 20260505072412 | 40 | 70 | 2.0 | 3.0 | 0.00 | 0.00 | 0.00 | 61 | 1010.7 |
| 20260505071908 | 40 | 107 | 2.0 | 2.0 | 0.00 | 0.00 | 0.00 | 61 | 1010.6 |
| 20260505071404 | 40 | 107 | 0.0 | 2.0 | 0.00 | 0.00 | 0.00 | 61 | 1010.7 |
| 20260505070903 | 41 | 112 | 2.0 | 3.0 | 0.00 | 0.00 | 0.00 | 59 | 1010.7 |
| 20260505070358 | 41 | 1 | 4.0 | 5.0 | 0.00 | 0.00 | 0.00 | 59 | 1010.7 |
| 20260505065854 | 41 | 346 | 4.0 | 7.0 | 0.00 | 0.00 | 0.00 | 60 | 1010.7 |
| 20260505065351 | 41 | 309 | 5.0 | 5.0 | 0.00 | 0.00 | 0.00 | 60 | 1010.6 |
| 20260505064848 | 41 | 25 | 3.0 | 3.0 | 0.00 | 0.00 | 0.00 | 59 | 1010.7 |
| 20260505064345 | 41 | 23 | 3.0 | 5.0 | 0.00 | 0.00 | 0.00 | 60 | 1010.5 |
| 20260505063844 | 41 | 60 | 3.0 | 3.0 | 0.00 | 0.00 | 0.00 | 61 | 1010.5 |
| 20260505063339 | 41 | 354 | 5.0 | 5.0 | 0.00 | 0.00 | 0.00 | 61 | 1010.3 |
| 20260505062836 | 41 | 317 | 3.0 | 5.0 | 0.00 | 0.00 | 0.00 | 62 | 1010.5 |
| 20260505062333 | 41 | 2 | 4.0 | 5.0 | 0.00 | 0.00 | 0.00 | 61 | 1010.3 |
| 20260505061830 | 42 | 109 | 2.0 | 3.0 | 0.00 | 0.00 | 0.00 | 60 | 1010.5 |
| 20260505061328 | 42 | 41 | 2.0 | 3.0 | 0.00 | 0.00 | 0.00 | 60 | 1010.5 |
| 20260505060826 | 42 | 34 | 2.0 | 3.0 | 0.00 | 0.00 | 0.00 | 61 | 1010.6 |
| 20260505060322 | 42 | 357 | 3.0 | 3.0 | 0.00 | 0.00 | 0.00 | 61 | 1010.5 |
| 20260505055818 | 42 | 51 | 2.0 | 2.0 | 0.00 | 0.00 | 0.00 | 60 | 1010.5 |
| 20260505055314 | 42 | 14 | 3.0 | 3.0 | 0.00 | 0.00 | 0.00 | 60 | 1010.2 |
| 20260505054812 | 42 | 47 | 2.0 | 3.0 | 0.00 | 0.00 | 0.00 | 60 | 1010.5 |
| 20260505054309 | 42 | 105 | 0.0 | 2.0 | 0.00 | 0.00 | 0.00 | 61 | 1010.5 |
| 20260505053807 | 42 | 108 | 0.0 | 2.0 | 0.00 | 0.00 | 0.00 | 60 | 1010.5 |
| 20260505053304 | 42 | 69 | 3.0 | 3.0 | 0.00 | 0.00 | 0.00 | 59 | 1010.5 |
| 20260505052801 | 43 | 5 | 2.0 | 3.0 | 0.00 | 0.00 | 0.00 | 59 | 1010.4 |
| 20260505052257 | 44 | 344 | 4.0 | 5.0 | 0.00 | 0.00 | 0.00 | 57 | 1010.4 |
| 20260505051754 | 44 | 328 | 3.0 | 3.0 | 0.00 | 0.00 | 0.00 | 56 | 1010.3 |
| 20260505051252 | 45 | 345 | 3.0 | 5.0 | 0.00 | 0.00 | 0.00 | 55 | 1010.6 |
| 20260505050750 | 46 | 339 | 3.0 | 5.0 | 0.00 | 0.00 | 0.00 | 54 | 1010.4 |
| 20260505050249 | 46 | 12 | 4.0 | 5.0 | 0.00 | 0.00 | 0.00 | 54 | 1010.4 |
| 20260505041718 | 47 | 355 | 4.0 | 5.0 | 0.00 | 0.00 | 0.00 | 51 | 1010.5 |
| 20260505041215 | 47 | 322 | 5.0 | 7.0 | 0.00 | 0.00 | 0.00 | 51 | 1010.5 |
| 20260505040712 | 47 | 317 | 3.0 | 3.0 | 0.00 | 0.00 | 0.00 | 51 | 1010.4 |
| 20260505040210 | 47 | 337 | 4.0 | 5.0 | 0.00 | 0.00 | 0.00 | 51 | 1010.4 |
| 20260505035706 | 48 | 339 | 4.0 | 5.0 | 0.00 | 0.00 | 0.00 | 50 | 1010.6 |
| 20260505035202 | 48 | 303 | 6.0 | 7.0 | 0.00 | 0.00 | 0.00 | 49 | 1010.4 |
| 20260505034659 | 48 | 315 | 6.0 | 7.0 | 0.00 | 0.00 | 0.00 | 49 | 1010.5 |
| 20260505034156 | 48 | 37 | 2.0 | 3.0 | 0.00 | 0.00 | 0.00 | 50 | 1010.3 |
| 20260505033652 | 48 | 349 | 4.0 | 5.0 | 0.00 | 0.00 | 0.00 | 49 | 1010.4 |
| 20260505033151 | 49 | 331 | 4.0 | 5.0 | 0.00 | 0.00 | 0.00 | 49 | 1010.4 |
| 20260505032649 | 49 | 57 | 5.0 | 7.0 | 0.00 | 0.00 | 0.00 | 48 | 1010.3 |
| 20260505032144 | 49 | 62 | 4.0 | 5.0 | 0.00 | 0.00 | 0.00 | 48 | 1010.4 |
| 20260505031642 | 50 | 22 | 5.0 | 7.0 | 0.00 | 0.00 | 0.00 | 47 | 1010.3 |
| 20260505031138 | 50 | 19 | 3.0 | 3.0 | 0.00 | 0.00 | 0.00 | 47 | 1010.3 |
| 20260505030635 | 50 | 63 | 5.0 | 7.0 | 0.00 | 0.00 | 0.00 | 46 | 1010.3 |
| 20260505030131 | 51 | 82 | 6.0 | 9.0 | 0.00 | 0.00 | 0.00 | 46 | 1010.3 |
| 20260505025627 | 51 | 333 | 6.0 | 7.0 | 0.00 | 0.00 | 0.00 | 45 | 1010.2 |
| 20260505025126 | 51 | 312 | 4.0 | 7.0 | 0.00 | 0.00 | 0.00 | 46 | 1010.0 |
| 20260505024623 | 51 | 17 | 6.0 | 9.0 | 0.00 | 0.00 | 0.00 | 46 | 1010.0 |
| 20260505024120 | 51 | 32 | 3.0 | 3.0 | 0.00 | 0.00 | 0.00 | 46 | 1009.8 |
| 20260505023617 | 51 | 313 | 4.0 | 7.0 | 0.00 | 0.00 | 0.00 | 45 | 1010.0 |
| 20260505023114 | 51 | 328 | 8.0 | 10.0 | 0.00 | 0.00 | 0.00 | 44 | 1009.7 |
| 20260505022612 | 52 | 13 | 5.0 | 5.0 | 0.00 | 0.00 | 0.00 | 45 | 1009.9 |
| 20260505022109 | 52 | 315 | 4.0 | 5.0 | 0.00 | 0.00 | 0.00 | 45 | 1009.5 |
| 20260505021605 | 52 | 9 | 2.0 | 3.0 | 0.00 | 0.00 | 0.00 | 45 | 1009.6 |
| 20260505021102 | 52 | 321 | 5.0 | 7.0 | 0.00 | 0.00 | 0.00 | 44 | 1009.5 |
| 20260505020602 | 52 | 334 | 5.0 | 9.0 | 0.00 | 0.00 | 0.00 | 43 | 1009.5 |
| 20260505020059 | 52 | 316 | 4.0 | 7.0 | 0.00 | 0.00 | 0.00 | 43 | 1009.4 |
| 20260505015556 | 53 | 344 | 5.0 | 7.0 | 0.00 | 0.00 | 0.00 | 43 | 1009.4 |
| 20260505015053 | 52 | 327 | 6.0 | 9.0 | 0.00 | 0.00 | 0.00 | 43 | 1009.5 |
| 20260505014550 | 53 | 309 | 6.0 | 10.0 | 0.00 | 0.00 | 0.00 | 42 | 1009.3 |
| 20260505014047 | 53 | 323 | 3.0 | 5.0 | 0.00 | 0.00 | 0.00 | 43 | 1009.4 |
| 20260505013544 | 53 | 338 | 6.0 | 7.0 | 0.00 | 0.00 | 0.00 | 42 | 1009.3 |
| 20260505013041 | 53 | 326 | 7.0 | 10.0 | 0.00 | 0.00 | 0.00 | 42 | 1009.4 |
| 20260505012539 | 53 | 21 | 7.0 | 9.0 | 0.00 | 0.00 | 0.00 | 41 | 1009.3 |
| 20260505012036 | 53 | 358 | 6.0 | 9.0 | 0.00 | 0.00 | 0.00 | 41 | 1009.3 |
| 20260505011537 | 53 | 289 | 8.0 | 10.0 | 0.00 | 0.00 | 0.00 | 41 | 1009.3 |
| 20260505011034 | 53 | 82 | 12.0 | 14.0 | 0.00 | 0.00 | 0.00 | 40 | 1009.1 |
| 20260505010529 | 53 | 105 | 2.0 | 3.0 | 0.00 | 0.00 | 0.00 | 41 | 1009.0 |
| 20260505010026 | 53 | 339 | 4.0 | 5.0 | 0.00 | 0.00 | 0.00 | 40 | 1008.9 |
| 20260505005522 | 54 | 318 | 9.0 | 12.0 | 0.00 | 0.00 | 0.00 | 40 | 1008.8 |
| 20260505005020 | 54 | 52 | 6.0 | 9.0 | 0.00 | 0.00 | 0.00 | 39 | 1008.8 |
| 20260505004517 | 54 | 347 | 7.0 | 10.0 | 0.00 | 0.00 | 0.00 | 39 | 1008.8 |
| 20260505004014 | 54 | 1 | 8.0 | 10.0 | 0.00 | 0.00 | 0.00 | 39 | 1008.9 |
| 20260505003511 | 54 | 313 | 7.0 | 10.0 | 0.00 | 0.00 | 0.00 | 39 | 1008.8 |
| 20260505003009 | 54 | 293 | 8.0 | 12.0 | 0.00 | 0.00 | 0.00 | 38 | 1008.8 |
| 20260505002503 | 55 | 15 | 6.0 | 9.0 | 0.00 | 0.00 | 0.00 | 39 | 1008.7 |
| 20260505002002 | 55 | 316 | 7.0 | 9.0 | 0.00 | 0.00 | 0.00 | 39 | 1008.8 |
| 20260505001459 | 55 | 285 | 12.0 | 15.0 | 0.00 | 0.00 | 0.00 | 38 | 1008.8 |
| 20260505000956 | 55 | 27 | 13.0 | 17.0 | 0.00 | 0.00 | 0.00 | 38 | 1008.6 |
| 20260505000454 | 55 | 33 | 13.0 | 15.0 | 0.00 | 0.00 | 0.00 | 39 | 1008.7 |
| 20260504235951 | 55 | 347 | 13.0 | 17.0 | 0.00 | 0.00 | 0.00 | 39 | 1008.8 |
| 20260504235448 | 56 | 325 | 8.0 | 10.0 | 0.00 | 0.00 | 0.00 | 39 | 1009.0 |
| 20260504234944 | 55 | 100 | 4.0 | 5.0 | 0.00 | 0.00 | 0.00 | 39 | 1008.8 |
| 20260504234441 | 55 | 327 | 13.0 | 15.0 | 0.00 | 0.00 | 0.00 | 39 | 1008.8 |
| 20260504233938 | 56 | 277 | 11.0 | 15.0 | 0.00 | 0.00 | 0.00 | 39 | 1008.5 |
| 20260504233434 | 56 | 31 | 13.0 | 15.0 | 0.00 | 0.00 | 0.00 | 39 | 1008.8 |
| 20260504232931 | 55 | 34 | 10.0 | 12.0 | 0.00 | 0.00 | 0.00 | 39 | 1008.7 |
| 20260504232428 | 56 | 7 | 12.0 | 14.0 | 0.00 | 0.00 | 0.00 | 40 | 1008.5 |
| 20260504231925 | 56 | 327 | 9.0 | 14.0 | 0.00 | 0.00 | 0.00 | 40 | 1008.6 |
| 20260504231421 | 56 | 298 | 11.0 | 17.0 | 0.00 | 0.00 | 0.00 | 39 | 1008.6 |
| 20260504230917 | 56 | 11 | 8.0 | 12.0 | 0.00 | 0.00 | 0.00 | 40 | 1008.5 |
| 20260504230414 | 56 | 345 | 10.0 | 15.0 | 0.00 | 0.00 | 0.00 | 39 | 1008.5 |
| 20260504225914 | 56 | 73 | 10.0 | 14.0 | 0.00 | 0.00 | 0.00 | 39 | 1008.4 |
| 20260504225410 | 56 | 333 | 17.0 | 22.0 | 0.00 | 0.00 | 0.00 | 38 | 1008.2 |
| 20260504224908 | 56 | 332 | 18.0 | 22.0 | 0.00 | 0.00 | 0.00 | 38 | 1008.5 |
| 20260504224404 | 56 | 13 | 11.0 | 15.0 | 0.00 | 0.00 | 0.00 | 38 | 1008.3 |
| 20260504223902 | 56 | 311 | 18.0 | 22.0 | 0.00 | 0.00 | 0.00 | 37 | 1008.2 |
| 20260504223356 | 57 | 310 | 15.0 | 17.0 | 0.00 | 0.00 | 0.00 | 38 | 1007.9 |
| 20260504222853 | 57 | 350 | 21.0 | 26.0 | 0.00 | 0.00 | 0.00 | 38 | 1007.9 |
| 20260504222350 | 58 | 341 | 14.0 | 17.0 | 0.00 | 0.00 | 0.00 | 40 | 1007.9 |
| 20260504221849 | 57 | 338 | 17.0 | 22.0 | 0.00 | 0.00 | 0.00 | 40 | 1008.0 |
| 20260504221345 | 57 | 14 | 13.0 | 15.0 | 0.00 | 0.00 | 0.00 | 41 | 1008.0 |
| 20260504220842 | 57 | 348 | 15.0 | 17.0 | 0.00 | 0.00 | 0.00 | 41 | 1008.1 |
| 20260504220339 | 57 | 325 | 13.0 | 17.0 | 0.00 | 0.00 | 0.00 | 41 | 1008.0 |
| 20260504215836 | 57 | 290 | 17.0 | 24.0 | 0.00 | 0.00 | 0.00 | 41 | 1008.0 |
| 20260504215332 | 56 | 312 | 19.0 | 24.0 | 0.00 | 0.00 | 0.00 | 42 | 1008.0 |
| 20260504214828 | 57 | 10 | 23.0 | 32.0 | 0.00 | 0.00 | 0.00 | 41 | 1008.2 |
| 20260504214326 | 57 | 312 | 22.0 | 27.0 | 0.00 | 0.00 | 0.00 | 40 | 1008.2 |
| 20260504213822 | 57 | 310 | 19.0 | 27.0 | 0.00 | 0.00 | 0.00 | 41 | 1008.3 |
| 20260504213318 | 57 | 343 | 13.0 | 17.0 | 0.00 | 0.00 | 0.00 | 40 | 1008.2 |
| 20260504212816 | 56 | 331 | 19.0 | 26.0 | 0.00 | 0.00 | 0.00 | 41 | 1008.0 |
| 20260504212311 | 56 | 327 | 19.0 | 24.0 | 0.00 | 0.00 | 0.00 | 41 | 1008.2 |
| 20260504211810 | 56 | 319 | 22.0 | 27.0 | 0.00 | 0.00 | 0.00 | 42 | 1008.1 |
| 20260504211305 | 57 | 330 | 17.0 | 22.0 | 0.00 | 0.00 | 0.00 | 41 | 1008.0 |
| 20260504210803 | 57 | 341 | 17.0 | 19.0 | 0.00 | 0.00 | 0.00 | 41 | 1008.0 |
| 20260504210300 | 57 | 327 | 24.0 | 32.0 | 0.00 | 0.00 | 0.00 | 42 | 1007.9 |
| 20260504205757 | 57 | 296 | 16.0 | 21.0 | 0.00 | 0.00 | 0.00 | 41 | 1008.0 |
| 20260504205255 | 56 | 299 | 20.0 | 24.0 | 0.00 | 0.00 | 0.00 | 42 | 1008.0 |
| 20260504204753 | 58 | 0 | 14.0 | 21.0 | 0.00 | 0.00 | 0.00 | 40 | 1008.2 |
| 20260504204251 | 57 | 291 | 21.0 | 29.0 | 0.00 | 0.00 | 0.00 | 40 | 1008.0 |
| 20260504203750 | 58 | 327 | 15.0 | 21.0 | 0.00 | 0.00 | 0.00 | 40 | 1007.8 |
| 20260504203247 | 58 | 301 | 12.0 | 15.0 | 0.00 | 0.00 | 0.00 | 39 | 1007.5 |
| 20260504202746 | 58 | 330 | 18.0 | 22.0 | 0.00 | 0.00 | 0.00 | 39 | 1007.5 |
| 20260504202244 | 59 | 355 | 17.0 | 26.0 | 0.00 | 0.00 | 0.00 | 37 | 1007.3 |
| 20260504201741 | 60 | 322 | 12.0 | 21.0 | 0.00 | 0.00 | 0.00 | 38 | 1007.2 |
| 20260504201238 | 60 | 47 | 8.0 | 12.0 | 0.00 | 0.00 | 0.00 | 39 | 1007.3 |
| 20260504200736 | 60 | 330 | 17.0 | 24.0 | 0.00 | 0.00 | 0.00 | 38 | 1007.2 |
| 20260504200231 | 59 | 314 | 16.0 | 21.0 | 0.00 | 0.00 | 0.00 | 36 | 1007.2 |
| 20260504195728 | 60 | 288 | 13.0 | 19.0 | 0.00 | 0.00 | 0.00 | 36 | 1007.1 |
| 20260504195224 | 63 | 304 | 16.0 | 19.0 | 0.00 | 0.00 | 0.00 | 36 | 1007.0 |
| 20260504194721 | 60 | 42 | 4.0 | 5.0 | 0.00 | 0.00 | 0.00 | 38 | 1007.0 |
| 20260504194217 | 61 | 8 | 14.0 | 17.0 | 0.00 | 0.00 | 0.00 | 37 | 1007.0 |
| 20260504193714 | 61 | 303 | 12.0 | 21.0 | 0.00 | 0.00 | 0.00 | 35 | 1006.9 |
| 20260504193212 | 61 | 21 | 15.0 | 21.0 | 0.00 | 0.00 | 0.00 | 36 | 1006.7 |
| 20260504192710 | 62 | 244 | 15.0 | 19.0 | 0.00 | 0.00 | 0.00 | 36 | 1006.7 |
| 20260504192207 | 61 | 76 | 20.0 | 26.0 | 0.00 | 0.00 | 0.00 | 36 | 1006.7 |
| 20260504191706 | 61 | 353 | 15.0 | 19.0 | 0.00 | 0.00 | 0.00 | 36 | 1006.7 |
| 20260504191202 | 62 | 12 | 20.0 | 27.0 | 0.00 | 0.00 | 0.00 | 34 | 1006.7 |
| 20260504190657 | 63 | 332 | 16.0 | 21.0 | 0.00 | 0.00 | 0.00 | 36 | 1006.5 |
| 20260504190154 | 64 | 342 | 9.0 | 14.0 | 0.00 | 0.00 | 0.00 | 36 | 1006.4 |
| 20260504185651 | 64 | 350 | 13.0 | 19.0 | 0.00 | 0.00 | 0.00 | 36 | 1006.4 |
| 20260504185148 | 64 | 326 | 9.0 | 12.0 | 0.00 | 0.00 | 0.00 | 37 | 1006.3 |
| 20260504184644 | 64 | 34 | 16.0 | 19.0 | 0.00 | 0.00 | 0.00 | 36 | 1006.3 |
| 20260504184138 | 64 | 314 | 17.0 | 21.0 | 0.00 | 0.00 | 0.00 | 36 | 1006.1 |
| 20260504183636 | 64 | 46 | 11.0 | 21.0 | 0.00 | 0.00 | 0.00 | 37 | 1006.3 |
| 20260504183133 | 64 | 335 | 13.0 | 15.0 | 0.00 | 0.00 | 0.00 | 36 | 1006.1 |
| 20260504182631 | 64 | 5 | 16.0 | 22.0 | 0.00 | 0.00 | 0.00 | 37 | 1006.0 |
| 20260504182128 | 65 | 228 | 11.0 | 15.0 | 0.00 | 0.00 | 0.00 | 36 | 1006.0 |
| 20260504181625 | 64 | 305 | 12.0 | 15.0 | 0.00 | 0.00 | 0.00 | 36 | 1006.0 |
| 20260504181123 | 63 | 322 | 21.0 | 29.0 | 0.00 | 0.00 | 0.00 | 35 | 1006.0 |
| 20260504180622 | 63 | 280 | 17.0 | 24.0 | 0.00 | 0.00 | 0.00 | 36 | 1005.8 |
| 20260504180120 | 64 | 316 | 21.0 | 26.0 | 0.00 | 0.00 | 0.00 | 34 | 1005.9 |
| 20260504175617 | 65 | 15 | 16.0 | 21.0 | 0.00 | 0.00 | 0.00 | 34 | 1005.8 |
| 20260504175114 | 65 | 322 | 12.0 | 15.0 | 0.00 | 0.00 | 0.00 | 32 | 1005.9 |
| 20260504174612 | 65 | 337 | 13.0 | 19.0 | 0.00 | 0.00 | 0.00 | 33 | 1005.6 |
| 20260504174108 | 64 | 299 | 13.0 | 17.0 | 0.00 | 0.00 | 0.00 | 35 | 1005.6 |
| 20260504173605 | 64 | 290 | 13.0 | 17.0 | 0.00 | 0.00 | 0.00 | 34 | 1005.6 |
| 20260504173103 | 65 | 322 | 22.0 | 26.0 | 0.00 | 0.00 | 0.00 | 33 | 1005.5 |
| 20260504172559 | 65 | 330 | 7.0 | 14.0 | 0.00 | 0.00 | 0.00 | 33 | 1005.7 |
| 20260504172055 | 64 | 316 | 12.0 | 14.0 | 0.00 | 0.00 | 0.00 | 34 | 1005.5 |
| 20260504171552 | 64 | 302 | 18.0 | 24.0 | 0.00 | 0.00 | 0.00 | 34 | 1005.5 |
| 20260504171049 | 65 | 295 | 13.0 | 15.0 | 0.00 | 0.00 | 0.00 | 33 | 1005.5 |
| 20260504170545 | 65 | 57 | 10.0 | 15.0 | 0.00 | 0.00 | 0.00 | 35 | 1005.2 |
| 20260504150924 | 63 | 88 | 12.0 | 15.0 | 0.00 | 0.00 | 0.00 | 38 | 1004.4 |
| 20260504150421 | 63 | 102 | 8.0 | 12.0 | 0.00 | 0.00 | 0.00 | 41 | 1003.9 |
| 20260504140846 | 61 | 236 | 6.0 | 7.0 | 0.00 | 0.00 | 0.00 | 50 | 1003.2 |
| 20260504140342 | 61 | 104 | 12.0 | 14.0 | 0.00 | 0.00 | 0.00 | 50 | 1003.2 |
| 20260504130811 | 58 | 332 | 13.0 | 15.0 | 0.00 | 0.00 | 0.00 | 59 | 1002.7 |
| 20260504130307 | 57 | 357 | 9.0 | 10.0 | 0.00 | 0.00 | 0.00 | 61 | 1002.5 |
| 20260504120231 | 50 | 30 | 2.0 | 3.0 | 0.00 | 0.00 | 0.00 | 67 | 1001.7 |
| 20260504110658 | 50 | 337 | 3.0 | 3.0 | 0.00 | 0.00 | 0.00 | 66 | 1001.5 |
| 20260504110154 | 50 | 85 | 3.0 | 5.0 | 0.00 | 0.00 | 0.00 | 66 | 1001.7 |
| 20260504100119 | 52 | 215 | 4.0 | 5.0 | 0.00 | 0.00 | 0.00 | 63 | 1002.3 |